Location: Newark
(42.9277°N, 71.8621°W)
Time: 20:15:02
(UTC+00:00)

Transit 4A - Pass Details

Date: 12 May 2021
Orbit: 872 x 973 km, 66.8° (Epoch: 15 June)

Event Time Altitude Azimuth Distance (km) Brightness Sun altitude
Rises 06:04:57 0° 336° (NNW) 3,505 11.5 -26.1°
Reaches altitude 10° 06:08:25 10° 356° (N) 2,548 11.0 -25.8°
Maximum altitude 06:12:13 17° 37° (NE) 2,059 10.5 -25.6°
Drops below altitude 10° 06:15:58 10° 77° (ENE) 2,523 10.6 -25.3°
Sets 06:19:22 0° 97° (E) 3,456 11.1 -25.0°
